Weather History for Big Piney, WY

Change the Weather History Date:

Saturday, November 16, 2013

  Actual Average Record
Temperature  
Mean Temperature 24 °F 24 °F  
Max Temperature 36 °F 37 °F 59 °F (1999)
Min Temperature 12 °F 10 °F -27 °F (1978)
Degree Days  
Heating Degree Days 41 42  
Month to date heating degree days 549 599  
Since 1 July heating degree days 1810 2179  
Cooling Degree Days 0 0  
Month to date cooling degree days 0 0  
Year to date cooling degree days 89 35  
Moisture  
Dew Point 18 °F    
Average Humidity 70    
Maximum Humidity 96    
Minimum Humidity 44    
Precipitation  
Precipitation T in 0.01 in 0.15 in (1996)
Month to date precipitation T 0.12  
Year to date precipitation 4.22 6.09  
Sea Level Pressure  
Sea Level Pressure 29.50 in    
Wind  
Wind Speed 12 mph (West)    
Max Wind Speed 30 mph    
Max Gust Speed 38 mph    
Visibility 7 miles    
Events Fog , Snow    
T = Trace of Precipitation, MM = Missing Value Source: NWS Daily Summary

Daily Weather History Graph

Daily Weather History Graph

Search for Another Location

Airport:

Trip Planner

Search our weather history database for the weather conditions in past years. The results will help you decide how hot, cold, wet, or windy it might be!

Date:

Astronomy

Nov. 16, 2013 Rise Set
Actual Time 7:13 AM MST 4:56 PM MST
Civil Twilight 6:42 AM MST 5:27 PM MST
Nautical Twilight 6:08 AM MST 6:01 PM MST
Astronomical Twilight 5:35 AM MST 6:34 PM MST
Moon 4:35 PM MST (11/16) 6:11 AM MST (11/16)
Length of Visible Light 10h 44m
Length of Day
9h 43m
Waxing Gibbous, 99% of the Moon is Illuminated
Nov 16
Waxing Gibbous
Nov 17
Full
Nov 25
Last Quarter
Dec 2
New
Dec 9
First Quarter

Hourly Weather History & Observations

Time (MST) Temp. Windchill Dew Point Humidity Pressure Visibility Wind Dir Wind Speed Gust Speed Precip Events Conditions
12:53 AM 17.1 °F 8.7 °F 10.9 °F 77% 29.59 in 10.0 mi North 5.8 mph - N/A   Scattered Clouds
1:53 AM 19.0 °F 9.0 °F 12.0 °F 74% 29.55 in 10.0 mi East 8.1 mph - N/A   Mostly Cloudy
2:53 AM 19.0 °F - 12.9 °F 77% 29.51 in 10.0 mi Calm Calm - N/A   Overcast
3:53 AM 19.9 °F 12.1 °F 12.9 °F 74% 29.48 in 10.0 mi East 5.8 mph - N/A   Overcast
4:53 AM 23.0 °F - 15.1 °F 72% 29.49 in 10.0 mi Calm Calm - N/A   Overcast
5:53 AM 24.1 °F 18.2 °F 19.0 °F 81% 29.51 in 7.0 mi SSW 4.6 mph - 0.00 in Snow Light Snow
6:13 AM 25.0 °F 17.1 °F 21.0 °F 85% 29.46 in 2.0 mi SSW 6.9 mph - 0.00 in Snow Light Snow
6:40 AM 25.0 °F 14.8 °F 21.9 °F 88% 29.45 in 3.0 mi SSW 10.4 mph - 0.00 in Snow Light Snow
6:53 AM 25.0 °F 16.3 °F 21.9 °F 88% 29.50 in 4.0 mi South 8.1 mph - 0.00 in Snow Light Snow
7:08 AM 25.0 °F 15.5 °F 21.9 °F 88% 29.45 in 2.5 mi South 9.2 mph - 0.00 in Snow Light Snow
7:18 AM 25.0 °F 14.2 °F 21.9 °F 88% 29.46 in 4.0 mi SSW 11.5 mph - 0.00 in Snow Light Snow
7:53 AM 25.0 °F 14.8 °F 21.9 °F 88% 29.51 in 7.0 mi South 10.4 mph - 0.00 in   Overcast
8:53 AM 26.1 °F 14.5 °F 21.9 °F 84% 29.51 in 9.0 mi South 13.8 mph - N/A   Overcast
9:53 AM 28.9 °F 17.3 °F 21.9 °F 75% 29.49 in 10.0 mi SSW 16.1 mph - N/A   Overcast
10:53 AM 32.0 °F 22.1 °F 21.9 °F 66% 29.49 in 10.0 mi SW 13.8 mph 19.6 mph N/A   Overcast
11:53 AM 34.0 °F 23.0 °F 18.0 °F 52% 29.46 in 10.0 mi WSW 18.4 mph - N/A   Overcast
12:53 PM 35.1 °F 25.2 °F 16.0 °F 46% 29.43 in 10.0 mi WNW 16.1 mph - N/A   Scattered Clouds
1:53 PM 35.1 °F 22.5 °F 18.0 °F 50% 29.41 in 10.0 mi West 26.5 mph 33.4 mph N/A   Clear
2:53 PM 32.0 °F 19.5 °F 18.0 °F 56% 29.42 in 10.0 mi West 21.9 mph 28.8 mph N/A   Partly Cloudy
3:53 PM 32.0 °F 21.6 °F 18.0 °F 56% 29.44 in 10.0 mi West 15.0 mph - N/A   Mostly Cloudy
4:53 PM 28.0 °F 15.7 °F 21.9 °F 78% 29.46 in 1.5 mi WSW 17.3 mph 23.0 mph 0.00 in Snow Light Snow
5:02 PM 27.0 °F 15.6 °F 24.1 °F 89% 29.45 in 0.5 mi West 13.8 mph - 0.00 in Fog , Snow Snow
5:17 PM 26.1 °F 19.4 °F 24.1 °F 92% 29.45 in 2.0 mi WNW 5.8 mph - 0.00 in Snow Light Snow
5:24 PM 25.0 °F 19.3 °F 24.1 °F 96% 29.45 in 4.0 mi West 4.6 mph - 0.00 in Snow Light Snow
5:43 PM 24.1 °F 19.7 °F 21.9 °F 91% 29.46 in 9.0 mi WNW 3.5 mph - 0.00 in   Overcast
5:53 PM 21.9 °F 17.2 °F 19.9 °F 92% 29.50 in 10.0 mi North 3.5 mph - 0.00 in   Overcast
6:53 PM 25.0 °F 15.5 °F 19.9 °F 81% 29.50 in 9.0 mi West 9.2 mph - 0.00 in Snow Light Snow
7:39 PM 26.1 °F 15.0 °F 21.9 °F 84% 29.50 in 2.5 mi West 12.7 mph - 0.00 in Snow Light Snow
7:53 PM 23.0 °F 13.1 °F 21.0 °F 92% 29.53 in 7.0 mi West 9.2 mph - 0.00 in Snow Light Snow
8:02 PM 21.0 °F 11.4 °F 19.0 °F 92% 29.50 in 10.0 mi WNW 8.1 mph - 0.00 in   Scattered Clouds
8:53 PM 24.1 °F 10.6 °F 19.9 °F 84% 29.56 in 1.5 mi NNW 17.3 mph 26.5 mph 0.00 in Snow Light Snow
8:58 PM 24.1 °F 9.4 °F 19.9 °F 84% 29.54 in 0.8 mi NNW 20.7 mph 31.1 mph 0.00 in Snow Light Snow
9:17 PM 23.0 °F 6.9 °F 18.0 °F 81% 29.55 in 0.5 mi NW 24.2 mph 34.5 mph 0.00 in Snow Snow
9:27 PM 23.0 °F 7.2 °F 18.0 °F 81% 29.55 in 1.0 mi WNW 23.0 mph 32.2 mph 0.00 in Snow Light Snow
9:31 PM 23.0 °F 6.9 °F 17.1 °F 78% 29.56 in 3.0 mi WNW 24.2 mph 31.1 mph 0.00 in Snow Light Snow
9:46 PM 23.0 °F 8.0 °F 10.9 °F 60% 29.57 in 10.0 mi WNW 20.7 mph 38.0 mph 0.00 in   Mostly Cloudy
9:53 PM 23.0 °F 8.3 °F 9.0 °F 55% 29.60 in 10.0 mi NW 19.6 mph - 0.00 in   Mostly Cloudy
10:53 PM 18.0 °F 6.9 °F 9.0 °F 68% 29.64 in 10.0 mi NNW 9.2 mph - N/A   Partly Cloudy
11:53 PM 12.0 °F -0.4 °F 7.0 °F 80% 29.69 in 10.0 mi NNW 9.2 mph - N/A   Clear